When you browse on this site, cookies collect data to enhance your experience and personalize the content and advertising you see.
Visit our Privacy Policy to learn more. By continuing to use the site, you agree to this use of cookies and data.
  • în România
  • Lista ţărilor
  • Pe 7 zile
  • Temperatura apei
  • Hartă satelitară
  • Meteo pe hartă
  • Widget-uri
  • user-avatar
    Intrare

    Meteo pe oră la Wrocimowice

    Astăzi, 18 Februarie, Luni

    Timp Temperatura Precipitaţii Vânt Presiune Umiditate
    00:00 +5°C° 0 mm 1 m/s 746 mmHg 75%
    01:00 +5°C° 0 mm 1 m/s 745 mmHg 77%
    02:00 +4°C° 0 mm 1 m/s 745 mmHg 78%
    03:00 +4°C° 0 mm 1 m/s 745 mmHg 78%
    04:00 +4°C° 0 mm 1 m/s 745 mmHg 78%
    05:00 +4°C° 0 mm 1 m/s 745 mmHg 76%
    06:00 +3°C° 0 mm 1 m/s 745 mmHg 75%
    07:00 +2°C° 0 mm 0 m/s 745 mmHg 71%
    08:00 +5°C° 0 mm 1 m/s 745 mmHg 65%
    09:00 +6°C° 0 mm 1 m/s 745 mmHg 59%
    10:00 +8°C° 0 mm 1 m/s 745 mmHg 52%
    11:00 +9°C° 0 mm 1 m/s 744 mmHg 48%
    12:00 +10°C° 0 mm 1 m/s 744 mmHg 45%
    13:00 +12°C° 0 mm 1 m/s 744 mmHg 40%
    14:00 +12°C° 0 mm 1 m/s 744 mmHg 42%
    15:00 +12°C° 0 mm 1 m/s 743 mmHg 44%
    16:00 +11°C° 0 mm 1 m/s 743 mmHg 46%
    17:00 +10°C° 0 mm 1 m/s 743 mmHg 50%
    18:00 +9°C° 0 mm 1 m/s 743 mmHg 54%
    19:00 +8°C° 0 mm 1 m/s 743 mmHg 58%
    20:00 +7°C° 0 mm 1 m/s 743 mmHg 62%
    21:00 +7°C° 0 mm 1 m/s 743 mmHg 67%
    22:00 +6°C° 0 mm 1 m/s 742 mmHg 71%
    23:00 +6°C° 0 mm 1 m/s 742 mmHg 72%

    Mâine, 19 Februarie, Marţi

    Timp Temperatura Precipitaţii Vânt Presiune Umiditate
    00:00 +5°C° 0 mm 1 m/s 742 mmHg 73%
    01:00 +5°C° 0 mm 1 m/s 742 mmHg 74%
    02:00 +5°C° 0 mm 1 m/s 742 mmHg 72%
    03:00 +4°C° 0 mm 1 m/s 742 mmHg 70%
    04:00 +4°C° 0 mm 1 m/s 741 mmHg 68%
    05:00 +4°C° 0 mm 1 m/s 741 mmHg 66%
    06:00 +2°C° 0 mm 2 m/s 741 mmHg 65%
    07:00 +2°C° 0 mm 2 m/s 741 mmHg 63%
    08:00 +4°C° 0 mm 2 m/s 741 mmHg 58%
    09:00 +6°C° 0 mm 2 m/s 741 mmHg 53%
    10:00 +7°C° 0 mm 2 m/s 740 mmHg 49%
    11:00 +9°C° 0 mm 3 m/s 740 mmHg 47%
    12:00 +10°C° 0 mm 4 m/s 740 mmHg 46%
    13:00 +12°C° 0 mm 5 m/s 740 mmHg 44%
    14:00 +10°C° 0 mm 5 m/s 739 mmHg 47%
    15:00 +10°C° 0 mm 5 m/s 739 mmHg 50%
    16:00 +10°C° 0 mm 4 m/s 739 mmHg 54%
    17:00 +8°C° 0 mm 5 m/s 739 mmHg 59%
    18:00 +7°C° 0 mm 5 m/s 739 mmHg 65%
    19:00 +6°C° 0 mm 5 m/s 739 mmHg 70%
    20:00 +5°C° 0 mm 5 m/s 739 mmHg 72%
    21:00 +5°C° 0 mm 5 m/s 739 mmHg 73%
    22:00 +3°C° 0 mm 5 m/s 739 mmHg 75%
    23:00 +3°C° 0.4 mm 5 m/s 740 mmHg 78%

    Poimâine, 20 Februarie, Miercuri

    Timp Temperatura Precipitaţii Vânt Presiune Umiditate
    00:00 +3°C° 0.4 mm 5 m/s 740 mmHg 81%
    01:00 +3°C° 0.4 mm 5 m/s 740 mmHg 84%
    02:00 +3°C° 0.1 mm 5 m/s 740 mmHg 86%
    03:00 +3°C° 0.1 mm 5 m/s 740 mmHg 89%
    04:00 +3°C° 0.1 mm 4 m/s 740 mmHg 92%
    05:00 +2°C° 0 mm 5 m/s 740 mmHg 91%
    06:00 +2°C° 0 mm 5 m/s 740 mmHg 90%
    07:00 +1°C° 0 mm 5 m/s 741 mmHg 89%
    08:00 +2°C° 0 mm 6 m/s 741 mmHg 84%
    09:00 +3°C° 0 mm 6 m/s 741 mmHg 79%
    10:00 +3°C° 0 mm 7 m/s 742 mmHg 73%
    11:00 +4°C° 0 mm 7 m/s 742 mmHg 70%
    12:00 +4°C° 0 mm 7 m/s 742 mmHg 66%
    13:00 +5°C° 0 mm 7 m/s 742 mmHg 62%
    14:00 +4°C° 0 mm 6 m/s 742 mmHg 64%
    15:00 +4°C° 0 mm 6 m/s 742 mmHg 66%
    16:00 +4°C° 0 mm 6 m/s 742 mmHg 68%
    17:00 +5°C° 0 mm 5 m/s 743 mmHg 69%
    18:00 +3°C° 0 mm 5 m/s 743 mmHg 71%
    19:00 +4°C° 0 mm 4 m/s 744 mmHg 72%
    20:00 +4°C° 0 mm 4 m/s 744 mmHg 74%
    21:00 +4°C° 0 mm 4 m/s 744 mmHg 76%
    22:00 +4°C° 0 mm 4 m/s 744 mmHg 77%
    23:00 +4°C° 0 mm 4 m/s 744 mmHg 78%

    21 Februarie, Joi

    Timp Temperatura Precipitaţii Vânt Presiune Umiditate
    00:00 +4°C° 0 mm 4 m/s 744 mmHg 79%
    01:00 +4°C° 0 mm 4 m/s 744 mmHg 80%
    02:00 +3°C° 0 mm 4 m/s 744 mmHg 79%
    03:00 +3°C° 0 mm 4 m/s 744 mmHg 79%
    04:00 +3°C° 0 mm 4 m/s 744 mmHg 79%
    05:00 +3°C° 0.1 mm 4 m/s 744 mmHg 79%
    06:00 +2°C° 0.1 mm 5 m/s 744 mmHg 79%
    07:00 +2°C° 0.1 mm 5 m/s 744 mmHg 80%
    08:00 +2°C° 0.3 mm 5 m/s 744 mmHg 77%
    09:00 +3°C° 0.3 mm 6 m/s 744 mmHg 75%
    10:00 +4°C° 0.3 mm 6 m/s 744 mmHg 73%
    11:00 +4°C° 0.1 mm 6 m/s 743 mmHg 74%
    12:00 +4°C° 0.1 mm 7 m/s 743 mmHg 75%
    13:00 +5°C° 0.1 mm 7 m/s 743 mmHg 76%
    14:00 +4°C° 0.7 mm 7 m/s 743 mmHg 78%
    15:00 +4°C° 0.7 mm 7 m/s 743 mmHg 80%
    16:00 +4°C° 0.7 mm 7 m/s 742 mmHg 82%
    17:00 +4°C° 0.3 mm 7 m/s 743 mmHg 84%
    18:00 +4°C° 0.3 mm 7 m/s 743 mmHg 86%
    19:00 +4°C° 0.3 mm 6 m/s 743 mmHg 88%
    20:00 +4°C° 0.2 mm 6 m/s 743 mmHg 88%
    21:00 +4°C° 0.2 mm 6 m/s 743 mmHg 89%
    22:00 +5°C° 0.2 mm 5 m/s 743 mmHg 90%
    23:00 +4°C° 0.2 mm 6 m/s 744 mmHg 88%

    22 Februarie, Vineri

    Timp Temperatura Precipitaţii Vânt Presiune Umiditate
    00:00 +4°C° 0.2 mm 6 m/s 744 mmHg 87%
    01:00 +4°C° 0.2 mm 7 m/s 744 mmHg 86%
    02:00 +4°C° 0.1 mm 7 m/s 744 mmHg 85%
    03:00 +3°C° 0.1 mm 7 m/s 745 mmHg 84%
    04:00 +2°C° 0.1 mm 7 m/s 745 mmHg 83%
    05:00 +1°C° 0 mm 6 m/s 746 mmHg 81%
    06:00 -1°C° 0 mm 6 m/s 747 mmHg 78%
    07:00 -2°C° 0 mm 6 m/s 748 mmHg 76%
    08:00 -1°C° 0 mm 5 m/s 749 mmHg 69%
    09:00 -1°C° 0 mm 5 m/s 750 mmHg 62%
    10:00 -1°C° 0 mm 4 m/s 751 mmHg 56%
    11:00 -1°C° 0 mm 5 m/s 752 mmHg 53%
    12:00 0°C° 0 mm 5 m/s 752 mmHg 50%
    13:00 0°C° 0 mm 5 m/s 753 mmHg 47%
    14:00 0°C° 0 mm 5 m/s 753 mmHg 47%
    15:00 -1°C° 0 mm 5 m/s 754 mmHg 47%
    16:00 -1°C° 0 mm 5 m/s 754 mmHg 46%
    17:00 -2°C° 0 mm 5 m/s 755 mmHg 50%
    18:00 -3°C° 0 mm 4 m/s 755 mmHg 53%
    19:00 -3°C° 0 mm 4 m/s 756 mmHg 57%
    20:00 -4°C° 0 mm 3 m/s 757 mmHg 55%
    21:00 -4°C° 0 mm 3 m/s 757 mmHg 53%
    22:00 -4°C° 0 mm 3 m/s 758 mmHg 51%
    23:00 -3°C° 0 mm 2 m/s 758 mmHg 50%

    23 Februarie, Sâmbătă

    Timp Temperatura Precipitaţii Vânt Presiune Umiditate
    00:00 -3°C° 0 mm 2 m/s 758 mmHg 48%
    01:00 -2°C° 0 mm 1 m/s 758 mmHg 47%
    02:00 -2°C° 0 mm 1 m/s 758 mmHg 47%
    03:00 -2°C° 0 mm 1 m/s 758 mmHg 47%
    04:00 -2°C° 0 mm 1 m/s 758 mmHg 47%
    05:00 -3°C° 0 mm 0 m/s 758 mmHg 48%
    06:00 -3°C° 0 mm 0 m/s 758 mmHg 48%
    07:00 -3°C° 0 mm 0 m/s 758 mmHg 48%
    08:00 -1°C° 0 mm 1 m/s 757 mmHg 42%
    09:00 0°C° 0 mm 1 m/s 757 mmHg 36%
    10:00 -1°C° 0 mm 2 m/s 757 mmHg 30%
    11:00 +1°C° 0 mm 2 m/s 756 mmHg 29%
    12:00 +1°C° 0 mm 2 m/s 756 mmHg 28%
    13:00 +2°C° 0 mm 2 m/s 755 mmHg 28%
    14:00 +2°C° 0 mm 2 m/s 755 mmHg 29%
    15:00 +2°C° 0 mm 2 m/s 754 mmHg 31%
    16:00 +1°C° 0 mm 3 m/s 753 mmHg 32%
    17:00 +1°C° 0 mm 3 m/s 753 mmHg 35%
    18:00 +1°C° 0 mm 3 m/s 753 mmHg 38%
    19:00 0°C° 0 mm 4 m/s 753 mmHg 41%
    20:00 +1°C° 0 mm 3 m/s 753 mmHg 46%
    21:00 0°C° 0 mm 3 m/s 753 mmHg 52%
    22:00 +1°C° 0 mm 2 m/s 753 mmHg 58%
    23:00 +1°C° 0 mm 2 m/s 753 mmHg 63%
    Arată mai mult